TimePDT,TemperatureF,Dew PointF,Humidity,Sea Level PressureIn,VisibilityMPH,Wind Direction,Wind SpeedMPH,Gust SpeedMPH,PrecipitationIn,Events,Conditions,WindDirDegrees,DateUTC
12:15 AM,62.6,39.2,42,30.08,10.0,Calm,Calm,-,N/A,,Clear,0,2012-10-03 07:15:00
12:35 AM,62.6,39.2,42,30.08,10.0,West,3.5,-,N/A,,Clear,260,2012-10-03 07:35:00
12:55 AM,62.6,39.2,42,30.08,10.0,NNW,3.5,-,N/A,,Clear,330,2012-10-03 07:55:00
1:15 AM,64.4,39.2,40,30.09,10.0,NW,3.5,-,N/A,,Clear,320,2012-10-03 08:15:00
1:35 AM,62.6,39.2,42,30.09,10.0,West,3.5,-,N/A,,Clear,280,2012-10-03 08:35:00
1:55 AM,64.4,39.2,40,30.09,10.0,NW,4.6,-,N/A,,Clear,310,2012-10-03 08:55:00
2:15 AM,62.6,41.0,45,30.09,10.0,NNW,4.6,-,N/A,,Clear,330,2012-10-03 09:15:00
2:35 AM,64.4,41.0,42,30.08,10.0,NNW,4.6,-,N/A,,Clear,330,2012-10-03 09:35:00
2:55 AM,64.4,41.0,42,30.08,10.0,NW,4.6,-,N/A,,Clear,320,2012-10-03 09:55:00
3:15 AM,64.4,39.2,40,30.08,10.0,NNW,3.5,-,N/A,,Clear,330,2012-10-03 10:15:00
3:55 AM,60.8,39.2,45,30.08,10.0,NNW,3.5,-,N/A,,Clear,340,2012-10-03 10:55:00
4:15 AM,59.0,39.2,48,30.08,10.0,North,3.5,-,N/A,,Clear,350,2012-10-03 11:15:00
4:55 AM,57.2,39.2,51,30.08,10.0,Calm,Calm,-,N/A,,Clear,0,2012-10-03 11:55:00
5:15 AM,57.2,39.2,51,30.08,10.0,Calm,Calm,-,N/A,,Clear,0,2012-10-03 12:15:00
5:35 AM,57.2,39.2,51,30.08,10.0,Calm,Calm,-,N/A,,Clear,0,2012-10-03 12:35:00
5:55 AM,57.2,39.2,51,30.08,10.0,Calm,Calm,-,N/A,,Clear,0,2012-10-03 12:55:00
6:15 AM,57.2,37.4,48,30.08,10.0,NNE,3.5,-,N/A,,Clear,20,2012-10-03 13:15:00
6:35 AM,57.2,37.4,48,30.08,10.0,Calm,Calm,-,N/A,,Clear,0,2012-10-03 13:35:00
6:55 AM,57.2,37.4,48,30.09,9.0,NNE,3.5,-,N/A,,Clear,30,2012-10-03 13:55:00
7:15 AM,53.6,39.2,58,30.09,8.0,Calm,Calm,-,N/A,,Clear,0,2012-10-03 14:15:00
7:35 AM,55.4,41.0,58,30.10,8.0,Calm,Calm,-,N/A,,Clear,0,2012-10-03 14:35:00
7:55 AM,62.6,41.0,45,30.10,7.0,Calm,Calm,-,N/A,,Clear,0,2012-10-03 14:55:00
8:15 AM,66.2,42.8,43,30.10,7.0,Calm,Calm,-,N/A,,Clear,0,2012-10-03 15:15:00
8:35 AM,69.8,39.2,33,30.11,8.0,Calm,Calm,-,N/A,,Clear,0,2012-10-03 15:35:00
8:55 AM,73.4,37.4,27,30.11,7.0,Calm,Calm,-,N/A,,Clear,0,2012-10-03 15:55:00
9:35 AM,80.6,32.0,17,30.11,9.0,WSW,3.5,-,N/A,,Clear,250,2012-10-03 16:35:00
9:55 AM,82.4,32.0,16,30.12,10.0,WNW,6.9,-,N/A,,Clear,290,2012-10-03 16:55:00
10:15 AM,82.4,30.2,15,30.11,10.0,West,5.8,-,N/A,,Clear,280,2012-10-03 17:15:00
10:55 AM,84.2,28.4,13,30.11,10.0,NNW,6.9,-,N/A,,Clear,330,2012-10-03 17:55:00
11:15 AM,84.2,28.4,13,30.10,8.0,North,9.2,-,N/A,,Clear,350,2012-10-03 18:15:00
11:35 AM,84.2,28.4,13,30.10,10.0,NNW,9.2,-,N/A,,Clear,330,2012-10-03 18:35:00
11:55 AM,84.2,28.4,13,30.10,10.0,Calm,Calm,-,N/A,,Clear,0,2012-10-03 18:55:00
12:35 PM,86.0,28.4,12,30.09,10.0,North,6.9,-,N/A,,Clear,350,2012-10-03 19:35:00
12:55 PM,86.0,28.4,12,30.08,9.0,NW,11.5,16.1,N/A,,Clear,320,2012-10-03 19:55:00
1:15 PM,86.0,28.4,12,30.07,10.0,NW,10.4,18.4,N/A,,Clear,320,2012-10-03 20:15:00
1:35 PM,86.0,28.4,12,30.07,9.0,North,5.8,-,N/A,,Clear,10,2012-10-03 20:35:00
1:55 PM,86.0,28.4,12,30.06,10.0,NW,11.5,-,N/A,,Clear,320,2012-10-03 20:55:00
2:15 PM,86.0,26.6,12,30.06,10.0,NW,10.4,19.6,N/A,,Clear,310,2012-10-03 21:15:00
2:35 PM,86.0,28.4,12,30.06,10.0,NW,10.4,-,N/A,,Clear,310,2012-10-03 21:35:00
2:55 PM,86.0,30.2,13,30.06,10.0,NW,11.5,18.4,N/A,,Clear,310,2012-10-03 21:55:00
3:15 PM,86.0,32.0,14,30.05,9.0,NW,13.8,19.6,N/A,,Clear,310,2012-10-03 22:15:00
3:55 PM,84.2,32.0,15,30.06,10.0,NW,16.1,19.6,N/A,,Clear,310,2012-10-03 22:55:00
4:15 PM,84.2,32.0,15,30.06,10.0,NW,13.8,17.3,N/A,,Clear,320,2012-10-03 23:15:00
4:35 PM,84.2,32.0,15,30.06,10.0,WNW,12.7,-,N/A,,Clear,300,2012-10-03 23:35:00
4:55 PM,82.4,32.0,16,30.06,10.0,WNW,13.8,21.9,N/A,,Clear,300,2012-10-03 23:55:00
5:15 PM,82.4,32.0,16,30.06,10.0,West,11.5,17.3,N/A,,Clear,280,2012-10-04 00:15:00
5:55 PM,80.6,32.0,17,30.06,10.0,NW,10.4,17.3,N/A,,Clear,310,2012-10-04 00:55:00
6:35 PM,77.0,32.0,19,30.06,10.0,WNW,10.4,-,N/A,,Clear,300,2012-10-04 01:35:00
6:55 PM,75.2,32.0,21,30.07,10.0,West,8.1,-,N/A,,Clear,280,2012-10-04 01:55:00
7:55 PM,69.8,35.6,28,30.09,10.0,West,4.6,-,N/A,,Clear,270,2012-10-04 02:55:00
8:15 PM,68.0,35.6,30,30.10,10.0,West,5.8,-,N/A,,Clear,280,2012-10-04 03:15:00
8:55 PM,68.0,37.4,33,30.11,9.0,West,9.2,-,N/A,,Clear,260,2012-10-04 03:55:00
9:15 PM,66.2,37.4,35,30.11,9.0,West,10.4,-,N/A,,Clear,260,2012-10-04 04:15:00
9:35 PM,66.2,37.4,35,30.12,9.0,West,8.1,-,N/A,,Clear,270,2012-10-04 04:35:00
9:55 PM,66.2,37.4,35,30.12,10.0,West,10.4,-,N/A,,Clear,280,2012-10-04 04:55:00
10:15 PM,66.2,37.4,35,30.13,10.0,West,9.2,-,N/A,,Clear,280,2012-10-04 05:15:00
10:35 PM,66.2,37.4,35,30.13,10.0,West,9.2,-,N/A,,Clear,280,2012-10-04 05:35:00
10:55 PM,64.4,37.4,37,30.14,10.0,West,5.8,-,N/A,,Clear,270,2012-10-04 05:55:00
11:15 PM,62.6,35.6,37,30.14,10.0,West,4.6,-,N/A,,Clear,280,2012-10-04 06:15:00
11:35 PM,62.6,35.6,37,30.14,10.0,West,8.1,-,N/A,,Clear,280,2012-10-04 06:35:00
11:55 PM,64.4,35.6,34,30.14,10.0,West,10.4,-,N/A,,Clear,280,2012-10-04 06:55:00